Location: Franzen
(48.6167°N, 15.3833°E)
Time: 09:27:29
(UTC+00:00)

Altair - Pass Details

Date: 06 August 2021
Orbit: 1501 x 1682 km, 47.2° (Epoch: 20 September)

Event Time Altitude Azimuth Distance (km) Brightness Sun altitude
Rises 06:04:38 0° 289° (WNW) 4,660 9.5 22.3°
Reaches altitude 10° 06:08:08 10° 280° (W) 3,664 9.0 22.9°
Maximum altitude 06:15:40 30° 224° (SW) 2,439 8.4 24.1°
Drops below altitude 10° 06:23:13 10° 168° (SSE) 3,660 9.8 25.4°
Sets 06:26:44 0° 158° (SSE) 4,654 10.4 25.9°
